Location: Gleizolles
(44.4833°N, 6.7667°E)
Time: 17:06:35
(UTC+00:00)

Altair - Pass Details

Date: 29 June 2024
Orbit: 1502 x 1681 km, 47.2° (Epoch: 13 July)

Event Time Altitude Azimuth Distance (km) Brightness Sun altitude
Rises 04:36:49 0° 291° (WNW) 4,678 9.6 6.2°
Reaches altitude 10° 04:39:49 10° 290° (WNW) 3,711 9.1 6.6°
Maximum altitude 04:49:11 75° 208° (SSW) 1,624 7.7 8.1°
Drops below altitude 10° 04:58:54 10° 125° (SE) 3,842 10.1 9.7°
Sets 05:02:04 0° 123° (ESE) 4,849 10.6 10.2°
